Monument Pass, CO

4:40 AM MDT on May 24, 2017 (GMT -0600)
Monument Pass

Weather History for KMNH - July, 2013

Change the Weather History Date:

Sunday, July 21, 2013

  Actual Average Record
Temperature  
Mean Temperature 70 °F -  
Max Temperature 86 °F - 96 °F (2005)
Min Temperature 55 °F - 51 °F (2004)
Degree Days  
Heating Degree Days 0    
Month to date heating degree days  
Cooling Degree Days 6    
Month to date cooling degree days  
Growing Degree Days 20 (Base 50)    
Moisture  
Dew Point 40 °F    
Average Humidity 38    
Maximum Humidity 82    
Minimum Humidity 10    
Precipitation  
Precipitation 0.00 in - 0.04 in (2011)
Sea Level Pressure  
Sea Level Pressure 30.13 in    
Wind  
Wind Speed 11 mph (SSW)    
Max Wind Speed 20 mph    
Max Gust Speed 26 mph    
Visibility 10 miles    
Events      
T = Trace of Precipitation, MM = Missing Value Source: NWS Daily Summary

Daily Weather History Graph

Daily Weather History Graph

Search for Another Location

Airport or City:

Trip Planner

Search our weather history database for the weather conditions in past years. The results will help you decide how hot, cold, wet, or windy it might be!

Date:

Astronomy

Jul. 21, 2013 Rise Set
Actual Time 5:49 AM MDT 8:19 PM MDT
Civil Twilight 5:18 AM MDT 8:50 PM MDT
Nautical Twilight 4:40 AM MDT 9:28 PM MDT
Astronomical Twilight 3:57 AM MDT 10:11 PM MDT
Moon 7:20 PM MDT (7/21) 4:38 AM MDT (7/21)
Length of Visible Light 15h 31m
Length of Day
14h 30m
Waxing Gibbous, 98% of the Moon is Illuminated
Jul 21
Waxing Gibbous
Jul 22
Full
Jul 29
Last Quarter
Aug 6
New
Aug 14
First Quarter

Hourly Weather History & Observations

Time (MDT) Temp. Dew Point Humidity Pressure Visibility Wind Dir Wind Speed Gust Speed Precip Events Conditions
12:14 AM 59.0 °F 46.4 °F 63% 30.17 in 10.0 mi SW 9.2 mph - N/A   Clear
12:34 AM 57.2 °F 48.2 °F 72% 30.17 in 10.0 mi South 10.4 mph - N/A   Clear
12:54 AM 55.4 °F 48.2 °F 77% 30.16 in 10.0 mi South 8.1 mph - N/A   Clear
1:13 AM 55.4 °F 50.0 °F 82% 30.16 in 10.0 mi South 9.2 mph - N/A   Clear
1:34 AM 55.4 °F 50.0 °F 82% 30.17 in 10.0 mi SSE 9.2 mph - N/A   Clear
1:54 AM 55.4 °F 50.0 °F 82% 30.16 in 10.0 mi South 11.5 mph - N/A   Clear
2:14 AM 57.2 °F 50.0 °F 77% 30.15 in 10.0 mi SSW 12.7 mph - N/A   Clear
2:34 AM 57.2 °F 48.2 °F 72% 30.15 in 10.0 mi South 18.4 mph 23.0 mph N/A   Clear
2:54 AM 59.0 °F 46.4 °F 63% 30.15 in 10.0 mi South 18.4 mph 24.2 mph N/A   Clear
3:14 AM 60.8 °F 46.4 °F 59% 30.15 in 10.0 mi SSW 18.4 mph 23.0 mph N/A   Clear
3:34 AM 60.8 °F 46.4 °F 59% 30.14 in 10.0 mi SSW 19.6 mph 23.0 mph N/A   Clear
3:54 AM 59.0 °F 46.4 °F 63% 30.14 in 10.0 mi SSW 15.0 mph 18.4 mph N/A   Clear
4:14 AM 59.0 °F 46.4 °F 63% 30.13 in 10.0 mi SSW 12.7 mph 19.6 mph N/A   Clear
4:34 AM 60.8 °F 46.4 °F 59% 30.13 in 10.0 mi South 13.8 mph 19.6 mph N/A   Clear
4:53 AM 60.8 °F 48.2 °F 63% 30.13 in 10.0 mi SSW 12.7 mph 17.3 mph N/A   Clear
5:14 AM 59.0 °F 48.2 °F 67% 30.12 in 10.0 mi SSW 12.7 mph 17.3 mph N/A   Clear
5:34 AM 59.0 °F 48.2 °F 67% 30.12 in 10.0 mi SSW 6.9 mph - N/A   Clear
5:54 AM 59.0 °F 48.2 °F 67% 30.12 in 10.0 mi South 8.1 mph - N/A   Clear
6:14 AM 57.2 °F 48.2 °F 72% 30.12 in 10.0 mi South 10.4 mph - N/A   Clear
6:34 AM 59.0 °F 48.2 °F 67% 30.11 in 10.0 mi SSW 9.2 mph - N/A   Clear
6:54 AM 62.6 °F 46.4 °F 55% 30.11 in 10.0 mi SSW 6.9 mph - N/A   Clear
7:14 AM 64.4 °F 46.4 °F 52% 30.11 in 10.0 mi SW 9.2 mph - N/A   Clear
7:34 AM 68.0 °F 46.4 °F 46% 30.11 in 10.0 mi SW 12.7 mph - N/A   Clear
7:54 AM 69.8 °F 46.4 °F 43% 30.12 in 10.0 mi SW 11.5 mph - N/A   Clear
8:14 AM 71.6 °F 42.8 °F 35% 30.12 in 10.0 mi WSW 11.5 mph - N/A   Clear
8:34 AM 75.2 °F 42.8 °F 31% 30.12 in 10.0 mi WSW 12.7 mph - N/A   Clear
8:54 AM 77.0 °F 41.0 °F 28% 30.13 in 10.0 mi WSW 10.4 mph - N/A   Clear
9:14 AM 78.8 °F 35.6 °F 21% 30.13 in 10.0 mi West 8.1 mph - N/A   Clear
9:34 AM 80.6 °F 28.4 °F 15% 30.13 in 10.0 mi WNW 12.7 mph 19.6 mph N/A   Clear
9:53 AM 82.4 °F 30.2 °F 15% 30.13 in 10.0 mi West 13.8 mph 17.3 mph N/A   Clear
10:14 AM 82.4 °F 28.4 °F 14% 30.13 in 10.0 mi West 13.8 mph 21.9 mph N/A   Clear
10:34 AM 82.4 °F 28.4 °F 14% 30.13 in 10.0 mi NW 18.4 mph 23.0 mph N/A   Clear
10:54 AM 84.2 °F 26.6 °F 12% 30.13 in 10.0 mi NW 16.1 mph 19.6 mph N/A   Clear
11:14 AM 84.2 °F 23.0 °F 11% 30.13 in 10.0 mi NNW 16.1 mph 23.0 mph N/A   Clear
11:34 AM 86.0 °F 23.0 °F 10% 30.13 in 10.0 mi NW 12.7 mph 19.6 mph N/A   Clear
11:54 AM 84.2 °F 24.8 °F 11% 30.14 in 10.0 mi NNW 15.0 mph 26.5 mph N/A   Clear
12:14 PM 84.2 °F 28.4 °F 13% 30.14 in 10.0 mi NNW 12.7 mph 24.2 mph N/A   Clear
12:33 PM 82.4 °F 37.4 °F 20% 30.13 in 10.0 mi North 10.4 mph 20.7 mph N/A   Clear
12:54 PM 84.2 °F 39.2 °F 20% 30.13 in 10.0 mi North 12.7 mph 18.4 mph N/A   Clear
1:13 PM 82.4 °F 41.0 °F 23% 30.13 in 10.0 mi North 9.2 mph - N/A   Clear
1:34 PM 84.2 °F 33.8 °F 16% 30.13 in 10.0 mi North 12.7 mph 20.7 mph N/A   Clear
1:54 PM 80.6 °F 37.4 °F 21% 30.13 in 10.0 mi NE 10.4 mph 17.3 mph N/A   Clear
2:13 PM 82.4 °F 41.0 °F 23% 30.13 in 10.0 mi NE 10.4 mph 17.3 mph N/A   Clear
2:34 PM 82.4 °F 44.6 °F 26% 30.13 in 10.0 mi NE 11.5 mph 17.3 mph N/A   Clear
2:54 PM 82.4 °F 44.6 °F 26% 30.12 in 10.0 mi ENE 10.4 mph 18.4 mph N/A   Clear
3:14 PM 82.4 °F 37.4 °F 20% 30.13 in 10.0 mi NE 9.2 mph 16.1 mph N/A   Clear
3:34 PM 82.4 °F 35.6 °F 19% 30.12 in 10.0 mi North 8.1 mph - N/A   Clear
3:54 PM 82.4 °F 37.4 °F 20% 30.12 in 10.0 mi NNE 4.6 mph - N/A   Clear
4:14 PM 82.4 °F 35.6 °F 19% 30.12 in 10.0 mi ENE 10.4 mph 16.1 mph N/A   Clear
4:34 PM 82.4 °F 33.8 °F 17% 30.12 in 10.0 mi NNE 8.1 mph - N/A   Clear
4:54 PM 82.4 °F 35.6 °F 19% 30.12 in 10.0 mi East 6.9 mph 16.1 mph N/A   Clear
5:14 PM 82.4 °F 33.8 °F 17% 30.12 in 10.0 mi NE 8.1 mph - N/A   Clear
5:34 PM 82.4 °F 32.0 °F 16% 30.11 in 10.0 mi East 6.9 mph 16.1 mph N/A   Clear
5:54 PM 82.4 °F 32.0 °F 16% 30.11 in 10.0 mi East 9.2 mph - N/A   Clear
6:14 PM 82.4 °F 32.0 °F 16% 30.11 in 10.0 mi East 10.4 mph - N/A   Clear
6:34 PM 80.6 °F 30.2 °F 16% 30.12 in 10.0 mi East 8.1 mph - N/A   Clear
6:54 PM 80.6 °F 41.0 °F 24% 30.11 in 10.0 mi SSE 10.4 mph 18.4 mph N/A   Clear
7:14 PM 78.8 °F 41.0 °F 26% 30.12 in 10.0 mi SSW 6.9 mph - N/A   Clear
7:33 PM 77.0 °F 42.8 °F 29% 30.12 in 10.0 mi SSW 8.1 mph - N/A   Clear
7:54 PM 73.4 °F 42.8 °F 33% 30.12 in 10.0 mi SSW 8.1 mph - N/A   Clear
8:14 PM 71.6 °F 42.8 °F 35% 30.13 in 10.0 mi SSW 5.8 mph - N/A   Clear
8:34 PM 68.0 °F 42.8 °F 40% 30.13 in 10.0 mi SSW 6.9 mph - N/A   Clear
8:54 PM 68.0 °F 41.0 °F 37% 30.13 in 10.0 mi SSW 5.8 mph - N/A   Clear
9:13 PM 66.2 °F 41.0 °F 40% 30.13 in 10.0 mi SSW 8.1 mph - N/A   Clear
9:33 PM 66.2 °F 41.0 °F 40% 30.14 in 10.0 mi SSW 9.2 mph - N/A   Clear
9:53 PM 64.4 °F 41.0 °F 42% 30.14 in 10.0 mi SSW 9.2 mph - N/A   Clear
10:14 PM 64.4 °F 41.0 °F 42% 30.14 in 10.0 mi SSW 8.1 mph - N/A   Clear
10:34 PM 64.4 °F 39.2 °F 40% 30.14 in 10.0 mi South 12.7 mph - N/A   Clear
10:54 PM 64.4 °F 37.4 °F 37% 30.14 in 10.0 mi SSW 10.4 mph - N/A   Clear
11:14 PM 64.4 °F 37.4 °F 37% 30.14 in 10.0 mi SSW 9.2 mph - N/A   Clear
11:34 PM 62.6 °F 37.4 °F 39% 30.13 in 10.0 mi SSW 9.2 mph - N/A   Clear
11:54 PM 64.4 °F 37.4 °F 37% 30.13 in 10.0 mi SSW 8.1 mph - N/A   Clear